Time,TemperatureF,DewpointF,PressureIn,WindDirection,WindDirectionDegrees,WindSpeedMPH,WindSpeedGustMPH,Humidity,HourlyPrecipIn,Conditions,Clouds,dailyrainin,SolarRadiationWatts/m^2,SoftwareType,DateUTC
2013-03-08 00:01:00,32.0,28.0,-100.00,NNE,32,9.0,11.0,83,-99.99,,,-99.99,-0.100000,,2013-03-08 07:01:00,
2013-03-08 00:11:00,32.0,27.0,-100.00,NNE,33,9.0,10.0,82,-99.99,,,-99.99,-0.100000,,2013-03-08 07:11:00,
2013-03-08 00:21:00,32.0,27.0,-100.00,NNE,33,9.0,12.0,81,-99.99,,,-99.99,-0.100000,,2013-03-08 07:21:00,
2013-03-08 00:31:00,32.0,27.0,-100.00,NE,39,8.0,9.0,82,-99.99,,,-99.99,0.000000,,2013-03-08 07:31:00,
2013-03-08 00:41:00,32.0,27.0,-100.00,NE,34,8.0,9.0,82,-99.99,,,-99.99,-0.100000,,2013-03-08 07:41:00,
2013-03-08 00:51:00,32.0,28.0,-100.00,NNE,28,9.0,10.0,83,-99.99,,,-99.99,0.000000,,2013-03-08 07:51:00,
2013-03-08 01:01:00,32.0,27.0,-100.00,NNE,33,8.0,10.0,83,-99.99,,,-99.99,-0.100000,,2013-03-08 08:01:00,
2013-03-08 01:11:00,32.0,28.0,-100.00,NE,35,9.0,10.0,82,-99.99,,,-99.99,0.000000,,2013-03-08 08:11:00,
2013-03-08 01:21:00,32.0,28.0,-100.00,NNE,33,6.0,8.0,82,-99.99,,,-99.99,-0.100000,,2013-03-08 08:21:00,
2013-03-08 01:31:00,32.0,28.0,-100.00,NE,46,6.0,6.0,83,-99.99,,,-99.99,-0.100000,,2013-03-08 08:31:00,
2013-03-08 01:41:00,32.0,28.0,-100.00,NNE,27,6.0,7.0,83,-99.99,,,-99.99,0.000000,,2013-03-08 08:41:00,
2013-03-08 01:52:00,32.0,28.0,-100.00,NNE,16,6.0,7.0,84,-99.99,,,-99.99,-0.100000,,2013-03-08 08:52:00,
2013-03-08 02:02:00,32.0,28.0,-100.00,NNE,15,6.0,6.0,84,-99.99,,,-99.99,-0.100000,,2013-03-08 09:02:00,
2013-03-08 02:11:00,32.0,28.0,-100.00,North,11,6.0,7.0,84,-99.99,,,-99.99,-0.100000,,2013-03-08 09:11:00,
2013-03-08 02:21:00,32.0,28.0,-100.00,NNE,25,7.0,7.0,83,-99.99,,,-99.99,-0.100000,,2013-03-08 09:21:00,
2013-03-08 02:31:00,32.0,28.0,-100.00,NNE,23,6.0,7.0,84,-99.99,,,-99.99,0.000000,,2013-03-08 09:31:00,
2013-03-08 02:41:00,32.0,28.0,-100.00,NNE,22,6.0,8.0,84,-99.99,,,-99.99,-0.100000,,2013-03-08 09:41:00,
2013-03-08 02:51:00,32.0,28.0,-100.00,NNE,20,8.0,10.0,83,-99.99,,,-99.99,-0.100000,,2013-03-08 09:51:00,
2013-03-08 03:01:00,32.0,28.0,-100.00,NNE,18,7.0,8.0,84,-99.99,,,-99.99,-0.100000,,2013-03-08 10:01:00,
2013-03-08 03:11:00,32.0,28.0,-100.00,NNE,17,8.0,9.0,85,-99.99,,,-99.99,-0.100000,,2013-03-08 10:11:00,
2013-03-08 03:21:00,32.0,28.0,-100.00,NNE,16,8.0,9.0,85,-99.99,,,-99.99,0.000000,,2013-03-08 10:21:00,
2013-03-08 03:31:00,32.0,28.0,-100.00,North,1,8.0,9.0,86,-99.99,,,-99.99,-0.100000,,2013-03-08 10:31:00,
2013-03-08 03:41:00,32.0,28.0,-100.00,North,357,9.0,11.0,86,-99.99,,,-99.99,0.000000,,2013-03-08 10:41:00,
2013-03-08 03:51:00,32.0,29.0,-100.00,North,359,10.0,13.0,87,-99.99,,,-99.99,0.000000,,2013-03-08 10:51:00,
2013-03-08 04:01:00,32.0,29.0,-100.00,NE,39,10.0,12.0,87,-99.99,,,-99.99,0.000000,,2013-03-08 11:01:00,
2013-03-08 04:11:00,32.0,29.0,-100.00,NE,34,10.0,12.0,87,-99.99,,,-99.99,0.000000,,2013-03-08 11:11:00,
2013-03-08 04:21:00,32.0,29.0,-100.00,NNE,22,10.0,12.0,88,-99.99,,,-99.99,-0.100000,,2013-03-08 11:21:00,
2013-03-08 04:32:00,32.0,29.0,-100.00,North,8,8.0,10.0,88,-99.99,,,-99.99,-0.100000,,2013-03-08 11:32:00,
2013-03-08 04:41:00,31.0,29.0,-100.00,NNE,19,10.0,12.0,89,-99.99,,,-99.99,-0.100000,,2013-03-08 11:41:00,
2013-03-08 04:52:00,31.0,29.0,-100.00,NNE,24,10.0,12.0,90,-99.99,,,-99.99,-0.100000,,2013-03-08 11:52:00,
2013-03-08 05:01:00,31.0,29.0,-100.00,NNE,29,10.0,13.0,91,-99.99,,,-99.99,-0.100000,,2013-03-08 12:01:00,
2013-03-08 05:11:00,31.0,29.0,-100.00,NNE,23,11.0,13.0,91,-99.99,,,-99.99,-0.100000,,2013-03-08 12:11:00,
2013-03-08 05:22:00,31.0,29.0,-100.00,NNE,21,10.0,11.0,91,-99.99,,,-99.99,0.000000,,2013-03-08 12:22:00,
2013-03-08 05:32:00,31.0,29.0,-100.00,NNE,19,9.0,11.0,91,-99.99,,,-99.99,-0.100000,,2013-03-08 12:32:00,
2013-03-08 05:42:00,31.0,29.0,-100.00,NNE,21,10.0,13.0,91,-99.99,,,-99.99,0.000000,,2013-03-08 12:42:00,
2013-03-08 05:52:00,32.0,30.0,-100.00,NNE,18,10.0,12.0,91,-99.99,,,-99.99,-0.100000,,2013-03-08 12:52:00,
2013-03-08 06:01:00,32.0,30.0,-100.00,NNE,15,9.0,12.0,92,-99.99,,,-99.99,-0.100000,,2013-03-08 13:01:00,
2013-03-08 06:11:00,32.0,30.0,-100.00,NNE,13,10.0,12.0,92,-99.99,,,-99.99,-0.100000,,2013-03-08 13:11:00,
2013-03-08 06:21:00,31.0,30.0,-100.00,NNE,13,11.0,13.0,92,-99.99,,,-99.99,-0.100000,,2013-03-08 13:21:00,
2013-03-08 06:32:00,31.0,30.0,-100.00,NNE,16,9.0,11.0,92,-99.99,,,-99.99,-0.100000,,2013-03-08 13:32:00,
2013-03-08 06:42:00,31.0,30.0,-100.00,NNE,17,10.0,13.0,93,-99.99,,,-99.99,-0.100000,,2013-03-08 13:42:00,
2013-03-08 06:52:00,31.0,30.0,-100.00,NNE,18,10.0,13.0,93,-99.99,,,-99.99,0.000000,,2013-03-08 13:52:00,
2013-03-08 07:02:00,31.0,30.0,-100.00,NNE,20,10.0,12.0,93,-99.99,,,-99.99,0.100000,,2013-03-08 14:02:00,
2013-03-08 07:11:00,31.0,30.0,-100.00,NNE,23,6.0,7.0,93,-99.99,,,-99.99,0.300000,,2013-03-08 14:11:00,
2013-03-08 07:21:00,31.0,30.0,-100.00,NNE,29,10.0,11.0,93,-99.99,,,-99.99,1.200000,,2013-03-08 14:21:00,
2013-03-08 07:32:00,31.0,30.0,-100.00,NNE,29,10.0,11.0,93,-99.99,,,-99.99,6.000000,,2013-03-08 14:32:00,
2013-03-08 07:41:00,31.0,30.0,-100.00,NNE,29,7.0,9.0,93,-99.99,,,-99.99,11.800000,,2013-03-08 14:41:00,
2013-03-08 07:52:00,32.0,30.0,-100.00,NNE,23,5.0,6.0,93,-99.99,,,-99.99,14.600000,,2013-03-08 14:52:00,
2013-03-08 08:02:00,31.0,30.0,-100.00,NNE,19,8.0,10.0,93,-99.99,,,-99.99,18.000000,,2013-03-08 15:02:00,
2013-03-08 08:11:00,31.0,30.0,-100.00,NNE,12,7.0,9.0,94,-99.99,,,-99.99,28.600000,,2013-03-08 15:11:00,
2013-03-08 08:21:00,31.0,30.0,-100.00,North,3,6.0,9.0,93,-99.99,,,-99.99,31.299999,,2013-03-08 15:21:00,
2013-03-08 08:31:00,31.0,30.0,-100.00,North,3,8.0,9.0,93,-99.99,,,-99.99,45.400002,,2013-03-08 15:31:00,
2013-03-08 08:42:00,31.0,30.0,-100.00,North,0,9.0,11.0,93,-99.99,,,-99.99,48.500000,,2013-03-08 15:42:00,
2013-03-08 08:52:00,31.0,30.0,-100.00,North,0,9.0,11.0,93,-99.99,,,-99.99,70.699997,,2013-03-08 15:52:00,
2013-03-08 09:01:00,31.0,30.0,-100.00,North,6,10.0,11.0,93,-99.99,,,-99.99,122.199997,,2013-03-08 16:01:00,
2013-03-08 09:11:00,31.0,30.0,-100.00,NNE,13,10.0,11.0,93,-99.99,,,-99.99,135.699997,,2013-03-08 16:11:00,
2013-03-08 09:21:00,31.0,30.0,-100.00,NNE,13,11.0,13.0,93,-99.99,,,-99.99,139.399994,,2013-03-08 16:21:00,
2013-03-08 09:31:00,31.0,30.0,-100.00,NNE,15,12.0,14.0,93,-99.99,,,-99.99,176.300003,,2013-03-08 16:31:00,
2013-03-08 09:41:00,32.0,30.0,-100.00,NNE,14,12.0,14.0,93,-99.99,,,-99.99,219.300003,,2013-03-08 16:41:00,
2013-03-08 09:51:00,32.0,30.0,-100.00,NNE,20,13.0,14.0,92,-99.99,,,-99.99,251.300003,,2013-03-08 16:51:00,
2013-03-08 10:02:00,32.0,30.0,-100.00,NNE,21,13.0,14.0,92,-99.99,,,-99.99,283.700012,,2013-03-08 17:02:00,
2013-03-08 10:11:00,33.0,31.0,-100.00,NNE,20,13.0,14.0,91,-99.99,,,-99.99,304.399994,,2013-03-08 17:11:00,
2013-03-08 10:21:00,33.0,31.0,-100.00,NNE,27,11.0,14.0,91,-99.99,,,-99.99,285.200012,,2013-03-08 17:21:00,
2013-03-08 10:31:00,34.0,31.0,-100.00,NNE,23,12.0,14.0,91,-99.99,,,-99.99,289.500000,,2013-03-08 17:31:00,
2013-03-08 10:41:00,34.0,32.0,-100.00,NNE,27,11.0,13.0,91,-99.99,,,-99.99,305.899994,,2013-03-08 17:41:00,
2013-03-08 10:52:00,34.0,32.0,-100.00,NNE,14,13.0,15.0,90,-99.99,,,-99.99,271.600006,,2013-03-08 17:52:00,
2013-03-08 11:01:00,35.0,32.0,-100.00,NNE,21,13.0,15.0,90,-99.99,,,-99.99,239.500000,,2013-03-08 18:01:00,
2013-03-08 11:11:00,35.0,32.0,-100.00,NNE,23,12.0,15.0,90,-99.99,,,-99.99,214.600006,,2013-03-08 18:11:00,
2013-03-08 11:21:00,35.0,32.0,-100.00,NNE,21,13.0,14.0,89,-99.99,,,-99.99,210.800003,,2013-03-08 18:21:00,
2013-03-08 11:31:00,35.0,32.0,-100.00,NNE,23,12.0,15.0,89,-99.99,,,-99.99,307.700012,,2013-03-08 18:31:00,
2013-03-08 11:41:00,36.0,33.0,-100.00,NNE,18,12.0,15.0,88,-99.99,,,-99.99,263.500000,,2013-03-08 18:41:00,
2013-03-08 11:51:00,36.0,33.0,-100.00,NNE,27,11.0,14.0,88,-99.99,,,-99.99,216.600006,,2013-03-08 18:51:00,
2013-03-08 12:01:00,36.0,33.0,-100.00,NNE,30,11.0,13.0,88,-99.99,,,-99.99,254.600006,,2013-03-08 19:01:00,
2013-03-08 12:11:00,36.0,33.0,-100.00,NNE,19,11.0,13.0,87,-99.99,,,-99.99,323.700012,,2013-03-08 19:11:00,
2013-03-08 12:21:00,37.0,33.0,-100.00,NE,36,11.0,13.0,86,-99.99,,,-99.99,396.100006,,2013-03-08 19:21:00,
2013-03-08 12:31:00,37.0,34.0,-100.00,NE,37,10.0,12.0,86,-99.99,,,-99.99,430.000000,,2013-03-08 19:31:00,
2013-03-08 12:41:00,37.0,33.0,-100.00,NE,46,9.0,12.0,84,-99.99,,,-99.99,388.200012,,2013-03-08 19:41:00,
2013-03-08 12:51:00,38.0,33.0,-100.00,NE,55,8.0,10.0,83,-99.99,,,-99.99,331.399994,,2013-03-08 19:51:00,
2013-03-08 13:01:00,38.0,34.0,-100.00,NE,52,9.0,13.0,84,-99.99,,,-99.99,736.200012,,2013-03-08 20:01:00,
2013-03-08 13:11:00,39.0,34.0,-100.00,NE,53,10.0,14.0,83,-99.99,,,-99.99,683.099976,,2013-03-08 20:11:00,
2013-03-08 13:21:00,40.0,35.0,-100.00,NE,36,11.0,15.0,84,-99.99,,,-99.99,528.200012,,2013-03-08 20:21:00,
2013-03-08 13:31:00,40.0,34.0,-100.00,NNE,23,10.0,12.0,81,-99.99,,,-99.99,428.000000,,2013-03-08 20:31:00,
2013-03-08 13:41:00,40.0,34.0,-100.00,NNE,12,9.0,12.0,80,-99.99,,,-99.99,292.799988,,2013-03-08 20:41:00,
2013-03-08 13:52:00,40.0,34.0,-100.00,NE,37,7.0,11.0,79,-99.99,,,-99.99,484.299988,,2013-03-08 20:52:00,
2013-03-08 14:01:00,40.0,33.0,-100.00,NE,45,5.0,9.0,76,-99.99,,,-99.99,205.100006,,2013-03-08 21:01:00,
2013-03-08 14:11:00,40.0,34.0,-100.00,North,4,7.0,10.0,77,-99.99,,,-99.99,190.300003,,2013-03-08 21:11:00,
2013-03-08 14:21:00,40.0,34.0,-100.00,North,7,6.0,8.0,76,-99.99,,,-99.99,244.300003,,2013-03-08 21:21:00,
2013-03-08 14:32:00,41.0,33.0,-100.00,NNE,21,6.0,8.0,74,-99.99,,,-99.99,465.100006,,2013-03-08 21:32:00,
2013-03-08 14:41:00,42.0,34.0,-100.00,NE,47,7.0,11.0,74,-99.99,,,-99.99,749.000000,,2013-03-08 21:41:00,
2013-03-08 14:51:00,42.0,34.0,-100.00,ENE,63,7.0,9.0,74,-99.99,,,-99.99,287.200012,,2013-03-08 21:51:00,
2013-03-08 15:01:00,41.0,34.0,-100.00,ENE,60,7.0,10.0,74,-99.99,,,-99.99,274.399994,,2013-03-08 22:01:00,
2013-03-08 15:11:00,42.0,34.0,-100.00,NE,36,6.0,11.0,74,-99.99,,,-99.99,277.600006,,2013-03-08 22:11:00,
2013-03-08 15:21:00,42.0,34.0,-100.00,NNE,27,7.0,10.0,74,-99.99,,,-99.99,221.699997,,2013-03-08 22:21:00,
2013-03-08 15:32:00,42.0,34.0,-100.00,NNE,26,9.0,11.0,73,-99.99,,,-99.99,196.199997,,2013-03-08 22:32:00,
2013-03-08 15:41:00,42.0,34.0,-100.00,NNE,31,9.0,11.0,72,-99.99,,,-99.99,193.800003,,2013-03-08 22:41:00,
2013-03-08 15:52:00,42.0,34.0,-100.00,ENE,58,10.0,12.0,72,-99.99,,,-99.99,156.800003,,2013-03-08 22:52:00,
2013-03-08 16:01:00,42.0,34.0,-100.00,ENE,72,9.0,11.0,73,-99.99,,,-99.99,101.599998,,2013-03-08 23:01:00,
2013-03-08 16:11:00,42.0,34.0,-100.00,ENE,65,9.0,11.0,72,-99.99,,,-99.99,110.699997,,2013-03-08 23:11:00,
2013-03-08 16:21:00,42.0,34.0,-100.00,ENE,59,9.0,11.0,74,-99.99,,,-99.99,141.899994,,2013-03-08 23:21:00,
2013-03-08 16:31:00,42.0,34.0,-100.00,ENE,66,9.0,11.0,72,-99.99,,,-99.99,156.199997,,2013-03-08 23:31:00,
2013-03-08 16:41:00,42.0,33.0,-100.00,NE,38,8.0,10.0,71,-99.99,,,-99.99,155.399994,,2013-03-08 23:41:00,
2013-03-08 16:52:00,42.0,34.0,-100.00,NNE,16,11.0,13.0,71,-99.99,,,-99.99,125.800003,,2013-03-08 23:52:00,
2013-03-08 17:01:00,42.0,33.0,-100.00,NNE,17,10.0,13.0,71,-99.99,,,-99.99,124.599998,,2013-03-09 00:01:00,
2013-03-08 17:11:00,42.0,33.0,-100.00,NNE,20,10.0,13.0,71,-99.99,,,-99.99,91.400002,,2013-03-09 00:11:00,
2013-03-08 17:21:00,41.0,33.0,-100.00,NNE,24,12.0,14.0,71,-99.99,,,-99.99,78.000000,,2013-03-09 00:21:00,
2013-03-08 17:31:00,41.0,33.0,-100.00,NNE,28,11.0,13.0,72,-99.99,,,-99.99,66.699997,,2013-03-09 00:31:00,
2013-03-08 17:41:00,41.0,33.0,-100.00,NNE,19,11.0,12.0,71,-99.99,,,-99.99,57.400002,,2013-03-09 00:41:00,
2013-03-08 17:51:00,41.0,32.0,-100.00,NNE,21,12.0,13.0,72,-99.99,,,-99.99,44.599998,,2013-03-09 00:51:00,
2013-03-08 18:01:00,40.0,32.0,-100.00,NNE,17,12.0,13.0,72,-99.99,,,-99.99,43.099998,,2013-03-09 01:01:00,
2013-03-08 18:11:00,40.0,33.0,-100.00,NNE,17,11.0,14.0,75,-99.99,,,-99.99,30.700001,,2013-03-09 01:11:00,
2013-03-08 18:21:00,39.0,32.0,-100.00,NNE,16,11.0,13.0,73,-99.99,,,-99.99,20.100000,,2013-03-09 01:21:00,
2013-03-08 18:31:00,39.0,31.0,-100.00,North,1,10.0,12.0,74,-99.99,,,-99.99,12.500000,,2013-03-09 01:31:00,
2013-03-08 18:41:00,38.0,32.0,-100.00,North,355,7.0,8.0,77,-99.99,,,-99.99,5.400000,,2013-03-09 01:41:00,
2013-03-08 18:51:00,38.0,32.0,-100.00,North,357,8.0,9.0,77,-99.99,,,-99.99,2.000000,,2013-03-09 01:51:00,
2013-03-08 19:01:00,38.0,31.0,-100.00,NNW,347,7.0,9.0,75,-99.99,,,-99.99,0.400000,,2013-03-09 02:01:00,
2013-03-08 19:10:00,37.0,32.0,-100.00,North,5,6.0,7.0,80,-99.99,,,-99.99,0.000000,,2013-03-09 02:10:00,
2013-03-08 19:21:00,37.0,32.0,-100.00,NNE,29,5.0,6.0,82,-99.99,,,-99.99,-0.100000,,2013-03-09 02:21:00,
2013-03-08 19:31:00,37.0,33.0,-100.00,NE,41,4.0,5.0,83,-99.99,,,-99.99,-0.100000,,2013-03-09 02:31:00,
2013-03-08 19:41:00,37.0,33.0,-100.00,NNE,32,4.0,5.0,83,-99.99,,,-99.99,-0.100000,,2013-03-09 02:41:00,
2013-03-08 19:51:00,37.0,32.0,-100.00,NNE,19,4.0,5.0,83,-99.99,,,-99.99,-0.100000,,2013-03-09 02:51:00,
2013-03-08 20:01:00,35.0,32.0,-100.00,North,358,6.0,7.0,85,-99.99,,,-99.99,-0.100000,,2013-03-09 03:01:00,
2013-03-08 20:11:00,34.0,31.0,-100.00,North,9,9.0,9.0,86,-99.99,,,-99.99,-0.100000,,2013-03-09 03:11:00,
2013-03-08 20:21:00,33.0,30.0,-100.00,North,7,11.0,11.0,88,-99.99,,,-99.99,-0.100000,,2013-03-09 03:21:00,
2013-03-08 20:31:00,34.0,30.0,-100.00,North,1,11.0,11.0,87,-99.99,,,-99.99,-0.100000,,2013-03-09 03:31:00,
2013-03-08 20:41:00,33.0,30.0,-100.00,North,351,9.0,10.0,87,-99.99,,,-99.99,-0.100000,,2013-03-09 03:41:00,
2013-03-08 20:52:00,32.0,29.0,-100.00,NNW,347,7.0,7.0,88,-99.99,,,-99.99,-0.100000,,2013-03-09 03:52:00,
2013-03-08 21:01:00,32.0,29.0,-100.00,NNW,327,5.0,7.0,89,-99.99,,,-99.99,-0.100000,,2013-03-09 04:01:00,
2013-03-08 21:11:00,32.0,29.0,-100.00,NW,324,3.0,4.0,89,-99.99,,,-99.99,-0.100000,,2013-03-09 04:11:00,
2013-03-08 21:21:00,32.0,30.0,-100.00,NW,319,3.0,3.0,89,-99.99,,,-99.99,-0.100000,,2013-03-09 04:21:00,
2013-03-08 21:31:00,33.0,29.0,-100.00,NNW,330,3.0,4.0,88,-99.99,,,-99.99,-0.100000,,2013-03-09 04:31:00,
2013-03-08 21:41:00,32.0,29.0,-100.00,NW,312,2.0,3.0,88,-99.99,,,-99.99,-0.100000,,2013-03-09 04:41:00,
2013-03-08 21:51:00,31.0,29.0,-100.00,WNW,303,3.0,4.0,90,-99.99,,,-99.99,-0.100000,,2013-03-09 04:51:00,
2013-03-08 22:01:00,31.0,28.0,-100.00,NW,304,4.0,4.0,90,-99.99,,,-99.99,-0.100000,,2013-03-09 05:01:00,
2013-03-08 22:11:00,30.0,28.0,-100.00,NW,312,4.0,5.0,92,-99.99,,,-99.99,-0.100000,,2013-03-09 05:11:00,
2013-03-08 22:21:00,31.0,28.0,-100.00,NNW,327,3.0,4.0,92,-99.99,,,-99.99,-0.100000,,2013-03-09 05:21:00,
2013-03-08 22:31:00,31.0,28.0,-100.00,NW,325,6.0,6.0,91,-99.99,,,-99.99,-0.100000,,2013-03-09 05:31:00,
2013-03-08 22:42:00,30.0,28.0,-100.00,NW,321,5.0,6.0,91,-99.99,,,-99.99,-0.100000,,2013-03-09 05:42:00,
2013-03-08 22:52:00,30.0,28.0,-100.00,NW,320,6.0,6.0,91,-99.99,,,-99.99,-0.100000,,2013-03-09 05:52:00,
2013-03-08 23:01:00,30.0,28.0,-100.00,NW,324,6.0,6.0,90,-99.99,,,-99.99,-0.100000,,2013-03-09 06:01:00,
2013-03-08 23:11:00,30.0,28.0,-100.00,NW,324,6.0,6.0,90,-99.99,,,-99.99,-0.100000,,2013-03-09 06:11:00,
2013-03-08 23:22:00,30.0,28.0,-100.00,NW,318,6.0,7.0,90,-99.99,,,-99.99,-0.100000,,2013-03-09 06:22:00,
2013-03-08 23:31:00,30.0,27.0,-100.00,NW,313,5.0,6.0,90,-99.99,,,-99.99,-0.100000,,2013-03-09 06:31:00,
2013-03-08 23:41:00,30.0,28.0,-100.00,NW,318,5.0,8.0,90,-99.99,,,-99.99,-0.100000,,2013-03-09 06:41:00,
2013-03-08 23:51:00,31.0,28.0,-100.00,NNW,331,9.0,10.0,89,-99.99,,,-99.99,0.000000,,2013-03-09 06:51:00,